Powrót do katalogu

STARLINK-34540

AktywnyŁącznośćSSO
NORAD 65657·PAYLOAD·🇺🇸 United States

Wystrzelony Sep 19, 2025 z Vandenberg Space Force Base

Loading…

Następne Przeloty (najbliższe 24 godziny)

TLE

ŚwieżeSource: CelesTrak SupGP

Epoka: Sep 14, 2026, 23:01 UTC

1 65657C 25211F   26257.95951389  .00027614  00000+0  85741-3 0  2575
2 65657  97.2836 298.2272 0001015  91.4709 186.2067 15.33418287    18

Śledź STARLINK-34540 w czasie rzeczywistym z AllMySat

Download on the App Store